Greensboro, NC

5:40 PM EDT on October 18, 2017 (GMT -0400)
Piedmont Triad International

Weather History for KGSO - July, 2012

Change the Weather History Date:

Saturday, July 28, 2012

  Actual Average Record
Temperature  
Mean Temperature 82 °F 78 °F  
Max Temperature 93 °F 88 °F 100 °F (1952)
Min Temperature 70 °F 69 °F 54 °F (1962)
Degree Days  
Heating Degree Days 0 0  
Month to date heating degree days 0 0  
Since 1 June heating degree days 4 6  
Since 1 July heating degree days 0 0  
Cooling Degree Days 17 13  
Month to date cooling degree days 468 383  
Year to date cooling degree days 1013 849  
Since 1 June cooling degree days 751 690  
Growing Degree Days 32 (Base 50)    
Moisture  
Dew Point 68 °F    
Average Humidity 66    
Maximum Humidity 93    
Minimum Humidity 38    
Precipitation  
Precipitation T in 0.15 in 2.52 in (1984)
Month to date precipitation 4.47 4.00  
Year to date precipitation 20.16 24.43  
Sea Level Pressure  
Sea Level Pressure 29.95 in    
Wind  
Wind Speed 4 mph (WSW)    
Max Wind Speed 14 mph    
Max Gust Speed 18 mph    
Visibility 10 miles    
Events Rain , Thunderstorm    
T = Trace of Precipitation, MM = Missing Value Source: NWS Daily Summary

Daily Weather History Graph

Daily Weather History Graph

Search for Another Location

Airport or City:

Trip Planner

Search our weather history database for the weather conditions in past years. The results will help you decide how hot, cold, wet, or windy it might be!

Date:

Astronomy

Jul. 28, 2012 Rise Set
Actual Time 6:24 AM EDT 8:27 PM EDT
Civil Twilight 5:55 AM EDT 8:56 PM EDT
Nautical Twilight 5:20 AM EDT 9:31 PM EDT
Astronomical Twilight 4:43 AM EDT 10:08 PM EDT
Moon 4:28 PM EDT (7/28) 1:43 AM EDT (7/28)
Length of Visible Light 15h 00m
Length of Day
14h 03m
Waxing Gibbous, 75% of the Moon is Illuminated
Jul 28
Waxing Gibbous
Aug 1
Full
Aug 9
Last Quarter
Aug 17
New
Aug 24
First Quarter

Hourly Weather History & Observations

Time (EDT) Temp. Heat Index Dew Point Humidity Pressure Visibility Wind Dir Wind Speed Gust Speed Precip Events Conditions
12:54 AM 75.0 °F - 71.1 °F 87% 29.94 in 10.0 mi Calm Calm - N/A   Clear
1:54 AM 73.9 °F - 70.0 °F 87% 29.94 in 10.0 mi Calm Calm - N/A   Clear
2:54 AM 73.0 °F - 70.0 °F 90% 29.94 in 10.0 mi Calm Calm - N/A   Clear
3:54 AM 72.0 °F - 69.1 °F 91% 29.93 in 10.0 mi Calm Calm - N/A   Clear
4:54 AM 71.1 °F - 69.1 °F 93% 29.94 in 10.0 mi SW 4.6 mph - N/A   Clear
5:54 AM 72.0 °F - 70.0 °F 93% 29.95 in 10.0 mi SW 6.9 mph - N/A   Clear
6:54 AM 72.0 °F - 70.0 °F 93% 29.97 in 9.0 mi Calm Calm - N/A   Clear
7:54 AM 73.0 °F - 71.1 °F 93% 29.95 in 9.0 mi SSW 5.8 mph - N/A   Clear
8:54 AM 77.0 °F - 72.0 °F 84% 29.98 in 10.0 mi Calm Calm - N/A   Clear
9:54 AM 82.0 °F 86.7 °F 72.0 °F 71% 29.98 in 10.0 mi West 8.1 mph - N/A   Clear
10:54 AM 84.9 °F 90.1 °F 71.1 °F 63% 29.98 in 10.0 mi West 6.9 mph - N/A   Partly Cloudy
11:54 AM 89.1 °F 90.0 °F 63.0 °F 42% 29.98 in 10.0 mi NW 11.5 mph - N/A   Scattered Clouds
12:54 PM 89.1 °F 90.0 °F 63.0 °F 42% 29.97 in 10.0 mi Variable 5.8 mph 16.1 mph N/A   Scattered Clouds
1:54 PM 91.0 °F 93.0 °F 64.9 °F 42% 29.95 in 10.0 mi West 6.9 mph - N/A   Scattered Clouds
2:54 PM 91.9 °F 92.9 °F 63.0 °F 38% 29.94 in 10.0 mi Variable 3.5 mph - N/A   Scattered Clouds
3:54 PM 90.0 °F 91.7 °F 64.9 °F 43% 29.92 in 10.0 mi West 4.6 mph - N/A   Scattered Clouds
4:54 PM 90.0 °F 92.4 °F 66.0 °F 45% 29.90 in 10.0 mi SW 3.5 mph - N/A   Mostly Cloudy
5:54 PM 91.0 °F 93.0 °F 64.9 °F 42% 29.88 in 10.0 mi West 6.9 mph - N/A   Scattered Clouds
6:54 PM 89.1 °F 92.1 °F 66.9 °F 48% 29.89 in 10.0 mi West 9.2 mph - N/A   Scattered Clouds
7:54 PM 86.0 °F 87.6 °F 64.9 °F 49% 29.91 in 10.0 mi NNW 6.9 mph - N/A   Mostly Cloudy
8:07 PM 82.4 °F 86.3 °F 69.8 °F 66% 29.96 in 8.0 mi WNW 6.9 mph - 0.00 in Rain , Thunderstorm Light Thunderstorms and Rain
8:43 PM 75.2 °F - 69.8 °F 83% 29.97 in 10.0 mi SSW 6.9 mph - 0.00 in   Mostly Cloudy
8:54 PM 75.0 °F - 68.0 °F 79% 29.94 in 10.0 mi SSW 6.9 mph - 0.00 in   Mostly Cloudy
9:54 PM 73.9 °F - 68.0 °F 82% 29.97 in 10.0 mi Calm Calm - N/A   Scattered Clouds
10:54 PM 73.0 °F - 69.1 °F 87% 29.97 in 10.0 mi South 3.5 mph - N/A   Mostly Cloudy
11:54 PM 73.0 °F - 69.1 °F 87% 29.98 in 10.0 mi SSW 3.5 mph - N/A   Scattered Clouds